Location: Vale
(35.4830°N, 81.3830°W)
Time: 21:24:20
(UTC-04:00)

Cosmos 2237 Rocket - Visible Passes

Search period start: 28 March 2017 00:00
Search period end: 07 April 2017 00:00
Orbit: 833 x 851 km, 71.0° (Epoch: 27 March)

Date Brightness Start Highest point End Pass type
(mag) Time Alt. Az. Time Alt. Az. Time Alt. Az.
28 Mar 4.9 04:05:20 10° ESE 04:06:41 11° E 04:08:02 10° E visible
28 Mar 2.1 05:46:03 21° SSW 05:49:55 81° WNW 05:55:39 10° NNE visible
29 Mar 4.9 03:51:34 10° E 03:51:53 10° E 03:52:13 10° E visible
29 Mar 2.1 05:32:19 32° SSW 05:35:04 85° WNW 05:40:49 10° NNE visible
30 Mar 2.1 05:18:28 46° SSW 05:20:15 89° WNW 05:25:59 10° NNE visible
31 Mar 2.1 05:04:29 65° SSW 05:05:24 87° ESE 05:11:08 10° NNE visible
31 Mar 4.1 06:47:45 10° WNW 06:50:13 13° NW 06:52:41 10° NNW visible
01 Apr 2.1 04:50:26 82° SE 04:50:34 83° ESE 04:56:18 10° NNE visible
01 Apr 4.0 06:32:37 10° W 06:35:20 13° NW 06:38:03 10° NNW visible
02 Apr 2.3 04:36:18 71° NE 04:36:18 71° NE 04:41:28 10° NNE visible
02 Apr 4.0 06:18:08 11° WNW 06:20:27 14° NW 06:23:24 10° NNW visible
03 Apr 2.7 04:22:05 56° NE 04:22:05 56° NE 04:26:37 10° NNE visible
03 Apr 3.9 06:03:56 13° WNW 06:05:34 15° NW 06:08:44 10° NNW visible
04 Apr 3.1 04:07:50 45° NE 04:07:50 45° NE 04:11:46 10° NNE visible
04 Apr 3.9 05:49:40 15° WNW 05:50:42 16° NW 05:54:03 10° NNW visible
05 Apr 3.5 03:53:31 37° NE 03:53:31 37° NE 03:56:55 10° NNE visible
05 Apr 3.9 05:35:21 16° WNW 05:35:50 16° NW 05:39:21 10° NNW visible
06 Apr 3.8 03:39:09 31° NE 03:39:09 31° NE 03:42:05 10° NNE visible
06 Apr 3.9 05:20:59 17° NW 05:20:59 17° NW 05:24:38 10° NNW visible
